STARLINK-11317, 61248

Orbit data source: Space-Track

STARLINK-11317, 61248 is a payload satellite owned by SpaceX/Seattle (US) in LEO that was launched on Wed, 25 Sep 2024 UTC via an FALCON 9 launch vehicle from the Air Force Western Test Range (AFWTR). Payloads include a variety of satellites, spacecraft, and rockets equipped with specific instruments for various scientific and technological missions. These include communications satellites like Starlink; space stations such as the ISS; scientific satellites like the Hubble; Earth observation satellites from companies like Planet Labs, Umbra, and HawkEye 360; GPS; miniature CubeSats for education and research; and military/defense satellites.

Loading next visibility...
STARLINK-11317 details
Identifier
61248, 2024-175F
Orbit
LEO
Last TLE update15 hours ago
Origin
Flag of USSpaceX/Seattle (US)
ManufacturerSpaceX/Seattle
MissionOperational spacecraft
Bus & MotorSTARLINK V2M, Unknown motor
Mass730 kg wet, ~700 kg dry
Launch date (UTC)
2024-09-25 (2 months ago)
Launch vehicle
FALCON 9
Launch site
Air Force Western Test Range (AFWTR)
Object type
Payload
Rocket body
Debris
Shape & HBRUnknown
Radar Cross SectionLarge (>1 m²)

Expand to show TLE details & history

TLE from 15 hours ago
0 STARLINK-11317
1 61248U 24175F   24336.83680324  .00000973  00000-0  12886-4 0  9990
2 61248  53.1579 177.7125 0001038 115.6298 244.4827 15.69715358 10672
Epoch: 2024-12-01T20:04Z
Definitive object data (Epoch: 2024-12-01T20:04:59.799Z)
Latitude-0.00006°
Longitude165.294°
Altitude360.928 km
Speed7.694 km/s
True Right ascension11h 50m 50s
True Declination0° 00' 00"
Sunlit
Object was in daylight at TLE epoch
Visualization TLE readout
Latitude-51.14216°
Longitude94.59159°
Altitude378.068 km
Speed7.682 km/s
Apparent Right ascension00h 47m 59s
Apparent Declination-77° 17' 47"
Sunlit
Object is in daylight
Visualization observer readout
Local Sidereal Time08:49:04
Azimuth195.669° SSW
Elevation-45.315°
Doppler factor1
Orbital elements
Apogee altitude360.672 km
Perigee altitude359.273 km
Semi-major axis6,738.109 km
Eccentricity0.0001038
Inclination53.1579°
RAAN177.7125°
Arg. of periapsis115.6298°
True anomaly244.47197°
Mean anomaly244.4827°
Eccentric anomaly244.47733°
Mean motion3.92406 °/min
BSTAR0.000012886
Orbital period91.74 mins
Loading maneuver chart data...
Loading historical data...
Loading historical data...
Loading historical data...
Loading historical data...
Loading historical data...
Loading historical data...
Loading historical data...

STARLINK-11317 Visibility forecast

Observer location: undefined°, undefined

Span
Click to sort rows by Start time (UTC) header in descending order
Start Az.
Max El. time (UTC)
Max El. Az.
Max El.
End time (UTC)
End Az.
5 mins2024-12-02 16:07:25.065Z218.922° SW2024-12-02 16:10:25.065Z88.603° E39.014°2024-12-02 16:12:25.065Z56.734° ENE
4 mins2024-12-02 22:33:25.065Z341.553° N2024-12-02 22:34:25.065Z20.113° NNE32.144°2024-12-02 22:37:25.065Z107.117° ESE
|